GLD1154 SBBV-TGPY

Flight info

Callsign GLD1154
Flight time 1h 24m
Altitude 35000
Route ILNER UM402 POS DCT IMORO DCT
Aircraft B738/M-SDFGIRY/S

Departure

Time 2026-04-25 18:57
Airport Atlas Brasil Cantanhede International Airport (SBBV)

Arrival

Time 2026-04-25 20:22
Airport Maurice Bishop International Airport (TGPY)
Time Latitude Longitude Altitude Speed Heading
2026-04-25 18:37 2.84203 -60.69248 281 ft 0 kts 154°
2026-04-25 18:50 2.84221 -60.69256 278 ft 4 kts 162°
2026-04-25 18:51 2.84248 -60.69261 278 ft 4 kts 184°
2026-04-25 18:51 2.84264 -60.69258 281 ft 4 kts 210°
2026-04-25 18:51 2.84276 -60.69248 282 ft 1 kts 242°
2026-04-25 18:53 2.84256 -60.69286 278 ft 13 kts 243°
2026-04-25 18:53 2.84215 -60.69367 278 ft 13 kts 243°
2026-04-25 18:54 2.84213 -60.69460 278 ft 7 kts 291°
2026-04-25 18:54 2.84187 -60.69542 278 ft 17 kts 243°
2026-04-25 18:54 2.84133 -60.69647 279 ft 17 kts 243°
2026-04-25 18:55 2.84081 -60.69748 278 ft 16 kts 243°
2026-04-25 18:55 2.84030 -60.69847 278 ft 16 kts 243°
2026-04-25 18:55 2.83981 -60.69943 283 ft 15 kts 243°
2026-04-25 18:55 2.83956 -60.70038 281 ft 14 kts 295°
2026-04-25 18:56 2.83977 -60.70058 279 ft 0 kts 332°
2026-04-25 18:56 2.83999 -60.70068 279 ft 9 kts 347°
2026-04-25 18:56 2.84087 -60.70054 282 ft 14 kts 35°
2026-04-25 18:56 2.84199 -60.69853 279 ft 73 kts 62°
2026-04-25 18:57 2.84564 -60.69148 280 ft 152 kts 63°
2026-04-25 18:57 2.85122 -60.68076 779 ft 183 kts 63°
2026-04-25 18:57 2.85702 -60.66973 1999 ft 172 kts 63°
2026-04-25 18:57 2.85879 -60.66635 2425 ft 166 kts 63°
2026-04-25 18:58 2.86777 -60.64880 3664 ft 184 kts 64°
2026-04-25 18:58 2.88371 -60.62377 4175 ft 242 kts 33°
2026-04-25 18:58 2.90025 -60.61925 4588 ft 262 kts 359°
2026-04-25 18:59 2.93756 -60.62498 6047 ft 279 kts 351°
2026-04-25 18:59 2.97617 -60.63198 7758 ft 286 kts 351°
2026-04-25 19:00 3.01538 -60.63881 9410 ft 293 kts 351°
2026-04-25 19:00 3.03564 -60.64225 10198 ft 298 kts 351°
2026-04-25 19:01 3.07983 -60.64963 10756 ft 343 kts 351°
2026-04-25 19:01 3.10370 -60.65358 11351 ft 350 kts 351°
2026-04-25 19:01 3.12755 -60.65751 12067 ft 353 kts 351°
2026-04-25 19:01 3.15190 -60.66150 12800 ft 356 kts 351°
2026-04-25 19:02 3.20138 -60.66961 14141 ft 364 kts 351°
2026-04-25 19:02 3.22653 -60.67373 14767 ft 368 kts 351°
2026-04-25 19:02 3.25194 -60.67789 15405 ft 372 kts 351°
2026-04-25 19:03 3.28627 -60.68351 16249 ft 375 kts 351°
2026-04-25 19:03 3.32946 -60.69058 17218 ft 381 kts 351°
2026-04-25 19:03 3.35579 -60.69489 17763 ft 386 kts 351°
2026-04-25 19:04 3.40923 -60.70364 18774 ft 392 kts 351°
2026-04-25 19:04 3.43636 -60.70808 19259 ft 395 kts 351°
2026-04-25 19:05 3.49113 -60.71705 20188 ft 402 kts 351°
2026-04-25 19:05 3.54667 -60.72615 21109 ft 408 kts 351°
2026-04-25 19:05 3.57481 -60.73076 21553 ft 411 kts 351°
2026-04-25 19:06 3.60317 -60.73540 21996 ft 414 kts 351°
2026-04-25 19:06 3.66044 -60.74479 22822 ft 420 kts 351°
2026-04-25 19:06 3.68941 -60.74953 23222 ft 423 kts 351°
2026-04-25 19:07 3.74763 -60.75907 23917 ft 429 kts 351°
2026-04-25 19:07 3.77714 -60.76391 24299 ft 430 kts 352°
2026-04-25 19:08 3.83646 -60.77364 24979 ft 434 kts 352°
2026-04-25 19:08 3.86634 -60.77853 25320 ft 436 kts 352°
2026-04-25 19:09 3.95730 -60.78813 26308 ft 441 kts 356°
2026-04-25 19:09 3.96761 -60.78894 26410 ft 442 kts 356°
2026-04-25 19:09 4.04950 -60.79563 27209 ft 448 kts 356°
2026-04-25 19:10 4.08069 -60.79836 27510 ft 450 kts 356°
2026-04-25 19:10 4.11196 -60.80116 27821 ft 452 kts 356°
2026-04-25 19:10 4.14335 -60.80401 28133 ft 454 kts 356°
2026-04-25 19:10 4.17490 -60.80688 28428 ft 456 kts 356°
2026-04-25 19:11 4.20617 -60.80974 28707 ft 458 kts 356°
2026-04-25 19:11 4.23791 -60.81263 28985 ft 459 kts 356°
2026-04-25 19:11 4.26988 -60.81554 29281 ft 461 kts 356°
2026-04-25 19:11 4.30194 -60.81846 29566 ft 463 kts 356°
2026-04-25 19:12 4.33415 -60.82139 29844 ft 465 kts 356°
2026-04-25 19:12 4.36647 -60.82433 30049 ft 468 kts 356°
2026-04-25 19:12 4.39897 -60.82728 30319 ft 468 kts 356°
2026-04-25 19:12 4.42050 -60.82924 30551 ft 467 kts 356°
2026-04-25 19:13 4.45281 -60.83219 30898 ft 465 kts 356°
2026-04-25 19:13 4.48498 -60.83511 31225 ft 465 kts 356°
2026-04-25 19:13 4.51725 -60.83805 31518 ft 465 kts 356°
2026-04-25 19:13 4.54946 -60.84098 31828 ft 465 kts 356°
2026-04-25 19:14 4.58165 -60.84391 32171 ft 464 kts 356°
2026-04-25 19:14 4.60297 -60.84585 32398 ft 464 kts 356°
2026-04-25 19:14 4.64587 -60.84975 32837 ft 463 kts 356°
2026-04-25 19:14 4.67797 -60.85267 33153 ft 463 kts 356°
2026-04-25 19:15 4.71018 -60.85561 33388 ft 465 kts 356°
2026-04-25 19:15 4.74250 -60.85861 33659 ft 466 kts 356°
2026-04-25 19:15 4.77479 -60.86165 33986 ft 465 kts 356°
2026-04-25 19:15 4.80700 -60.86470 34300 ft 464 kts 356°
2026-04-25 19:16 4.83915 -60.86774 34612 ft 462 kts 356°
2026-04-25 19:16 4.87075 -60.87073 34893 ft 462 kts 356°
2026-04-25 19:16 4.90282 -60.87375 34919 ft 466 kts 356°
2026-04-25 19:17 4.96770 -60.87986 34935 ft 467 kts 356°
2026-04-25 19:17 5.03271 -60.88598 34950 ft 475 kts 356°
2026-04-25 19:18 5.09921 -60.89224 34950 ft 484 kts 356°
2026-04-25 19:18 5.16673 -60.89860 34940 ft 488 kts 356°
2026-04-25 19:19 5.23402 -60.90495 34932 ft 488 kts 356°
2026-04-25 19:19 5.30173 -60.91133 34933 ft 488 kts 356°
2026-04-25 19:20 5.36953 -60.91773 34919 ft 489 kts 355°
2026-04-25 19:20 5.43723 -60.92406 34920 ft 486 kts 355°
2026-04-25 19:21 5.50408 -60.93009 34927 ft 484 kts 355°
2026-04-25 19:21 5.60454 -60.93908 34919 ft 482 kts 355°
2026-04-25 19:22 5.67139 -60.94510 34925 ft 482 kts 355°
2026-04-25 19:23 5.77145 -60.95413 34928 ft 481 kts 356°
2026-04-25 19:23 5.87157 -60.96317 34919 ft 481 kts 355°
2026-04-25 19:24 5.93835 -60.96920 34916 ft 482 kts 355°
2026-04-25 19:25 6.07148 -60.98122 34913 ft 483 kts 355°
2026-04-25 19:25 6.13852 -60.98728 34904 ft 484 kts 355°
2026-04-25 19:26 6.20574 -60.99335 34908 ft 485 kts 355°
2026-04-25 19:26 6.27305 -60.99944 34891 ft 485 kts 355°
2026-04-25 19:27 6.32724 -61.00434 34893 ft 485 kts 355°
2026-04-25 19:27 6.40594 -61.01146 34877 ft 486 kts 355°
2026-04-25 19:28 6.47337 -61.01756 34881 ft 486 kts 355°
2026-04-25 19:28 6.54031 -61.02362 34886 ft 486 kts 355°
2026-04-25 19:29 6.60766 -61.02972 34875 ft 486 kts 355°
2026-04-25 19:29 6.67507 -61.03582 34873 ft 485 kts 355°
2026-04-25 19:30 6.74231 -61.04197 34871 ft 485 kts 355°
2026-04-25 19:30 6.80908 -61.04828 34870 ft 484 kts 355°
2026-04-25 19:31 6.87616 -61.05467 34861 ft 484 kts 355°
2026-04-25 19:31 6.94321 -61.06103 34858 ft 484 kts 355°
2026-04-25 19:32 7.00988 -61.06734 34851 ft 484 kts 355°
2026-04-25 19:32 7.06561 -61.07261 34857 ft 483 kts 355°
2026-04-25 19:33 7.14396 -61.08003 34859 ft 484 kts 355°
2026-04-25 19:33 7.21100 -61.08638 34858 ft 484 kts 355°
2026-04-25 19:34 7.27817 -61.09274 34855 ft 484 kts 355°
2026-04-25 19:34 7.34529 -61.09910 34849 ft 485 kts 355°
2026-04-25 19:35 7.41207 -61.10543 34861 ft 485 kts 355°
2026-04-25 19:35 7.47929 -61.11180 34855 ft 485 kts 355°
2026-04-25 19:36 7.54649 -61.11817 34857 ft 485 kts 355°
2026-04-25 19:36 7.61385 -61.12456 34863 ft 486 kts 355°
2026-04-25 19:37 7.68123 -61.13096 34857 ft 486 kts 355°
2026-04-25 19:37 7.74855 -61.13735 34863 ft 486 kts 355°
2026-04-25 19:38 7.81595 -61.14375 34864 ft 486 kts 355°
2026-04-25 19:38 7.88338 -61.15015 34863 ft 487 kts 355°
2026-04-25 19:39 7.95082 -61.15656 34865 ft 487 kts 355°
2026-04-25 19:39 8.01798 -61.16294 34863 ft 487 kts 355°
2026-04-25 19:40 8.08491 -61.16930 34865 ft 486 kts 355°
2026-04-25 19:40 8.15240 -61.17572 34861 ft 486 kts 355°
2026-04-25 19:41 8.21978 -61.18214 34859 ft 486 kts 355°
2026-04-25 19:41 8.26485 -61.18642 34868 ft 487 kts 355°
2026-04-25 19:42 8.35472 -61.19498 34856 ft 487 kts 354°
2026-04-25 19:42 8.42212 -61.20140 34864 ft 486 kts 354°
2026-04-25 19:43 8.48961 -61.20779 34863 ft 486 kts 354°
2026-04-25 19:43 8.55658 -61.21392 34862 ft 486 kts 355°
2026-04-25 19:44 8.62392 -61.22003 34864 ft 486 kts 355°
2026-04-25 19:44 8.69128 -61.22617 34878 ft 486 kts 354°
2026-04-25 19:45 8.75868 -61.23234 34868 ft 486 kts 354°
2026-04-25 19:45 8.82599 -61.23851 34874 ft 485 kts 354°
2026-04-25 19:46 8.89339 -61.24469 34874 ft 485 kts 354°
2026-04-25 19:46 8.96065 -61.25085 34880 ft 485 kts 354°
2026-04-25 19:47 9.02752 -61.25698 34880 ft 485 kts 354°
2026-04-25 19:47 9.09480 -61.26315 34880 ft 485 kts 354°
2026-04-25 19:48 9.16215 -61.26933 34880 ft 486 kts 354°
2026-04-25 19:48 9.22900 -61.27547 34878 ft 486 kts 354°
2026-04-25 19:49 9.27400 -61.27960 34885 ft 486 kts 354°
2026-04-25 19:49 9.36364 -61.28784 34882 ft 486 kts 354°
2026-04-25 19:50 9.46472 -61.29713 34889 ft 486 kts 354°
2026-04-25 19:51 9.53202 -61.30332 34889 ft 486 kts 354°
2026-04-25 19:51 9.59943 -61.30952 34892 ft 486 kts 354°
2026-04-25 19:52 9.66671 -61.31571 34894 ft 486 kts 354°
2026-04-25 19:52 9.73413 -61.32192 34892 ft 481 kts 354°
2026-04-25 19:52 9.76648 -61.32489 34879 ft 465 kts 354°
2026-04-25 19:53 9.79855 -61.32784 34864 ft 449 kts 354°
2026-04-25 19:53 9.82908 -61.33066 34554 ft 443 kts 354°
2026-04-25 19:53 9.85953 -61.33347 34257 ft 437 kts 354°
2026-04-25 19:53 9.88975 -61.33626 33890 ft 434 kts 354°
2026-04-25 19:54 9.91964 -61.33908 33472 ft 431 kts 353°
2026-04-25 19:54 9.94948 -61.34197 33084 ft 429 kts 353°
2026-04-25 19:54 9.97910 -61.34487 32683 ft 426 kts 353°
2026-04-25 19:54 9.98907 -61.34585 32561 ft 425 kts 353°
2026-04-25 19:55 10.03765 -61.35060 31927 ft 421 kts 354°
2026-04-25 19:55 10.06673 -61.35344 31554 ft 419 kts 354°
2026-04-25 19:55 10.09529 -61.35622 31182 ft 417 kts 354°
2026-04-25 19:55 10.12413 -61.35903 30802 ft 416 kts 354°
2026-04-25 19:56 10.15289 -61.36183 30431 ft 414 kts 354°
2026-04-25 19:56 10.18159 -61.36462 30042 ft 413 kts 354°
2026-04-25 19:56 10.21019 -61.36740 29633 ft 411 kts 354°
2026-04-25 19:56 10.23859 -61.37017 29220 ft 408 kts 354°
2026-04-25 19:57 10.26679 -61.37291 28821 ft 406 kts 354°
2026-04-25 19:57 10.29479 -61.37564 28441 ft 403 kts 354°
2026-04-25 19:57 10.32262 -61.37835 28050 ft 400 kts 354°
2026-04-25 19:57 10.35021 -61.38104 27673 ft 397 kts 354°
2026-04-25 19:58 10.37762 -61.38371 27297 ft 394 kts 354°
2026-04-25 19:58 10.40480 -61.38636 26923 ft 392 kts 354°
2026-04-25 19:58 10.43192 -61.38900 26553 ft 390 kts 354°
2026-04-25 19:58 10.45848 -61.39160 26188 ft 387 kts 354°
2026-04-25 19:59 10.48498 -61.39600 25816 ft 385 kts 347°
2026-04-25 19:59 10.51095 -61.40236 25442 ft 383 kts 345°
2026-04-25 19:59 10.53676 -61.40918 25077 ft 382 kts 345°
2026-04-25 19:59 10.56242 -61.41606 24719 ft 380 kts 345°
2026-04-25 20:00 10.58795 -61.42284 24345 ft 379 kts 345°
2026-04-25 20:00 10.59658 -61.42512 24219 ft 379 kts 345°
2026-04-25 20:00 10.63902 -61.43617 23613 ft 377 kts 346°
2026-04-25 20:00 10.66437 -61.44269 23201 ft 375 kts 346°
2026-04-25 20:01 10.71471 -61.45556 22434 ft 370 kts 346°
2026-04-25 20:01 10.73965 -61.46192 22067 ft 368 kts 346°
2026-04-25 20:01 10.76442 -61.46823 21710 ft 365 kts 346°
2026-04-25 20:02 10.78897 -61.47450 21350 ft 363 kts 346°
2026-04-25 20:02 10.81309 -61.48064 21000 ft 360 kts 346°
2026-04-25 20:02 10.83728 -61.48681 20650 ft 358 kts 346°
2026-04-25 20:02 10.86139 -61.49296 20303 ft 356 kts 346°
2026-04-25 20:03 10.88529 -61.49905 19966 ft 354 kts 347°
2026-04-25 20:03 10.90143 -61.50317 19732 ft 353 kts 347°
2026-04-25 20:03 10.92492 -61.50916 19380 ft 351 kts 347°
2026-04-25 20:03 10.94860 -61.51521 19038 ft 350 kts 346°
2026-04-25 20:04 10.97220 -61.52123 18674 ft 349 kts 346°
2026-04-25 20:04 10.99572 -61.52723 18324 ft 349 kts 346°
2026-04-25 20:04 11.01898 -61.53317 17956 ft 348 kts 346°
2026-04-25 20:04 11.04244 -61.53916 17586 ft 345 kts 346°
2026-04-25 20:05 11.06567 -61.54510 17241 ft 343 kts 346°
2026-04-25 20:05 11.08875 -61.55099 16897 ft 341 kts 346°
2026-04-25 20:05 11.11173 -61.55686 16554 ft 339 kts 346°
2026-04-25 20:05 11.13457 -61.56270 16220 ft 337 kts 346°
2026-04-25 20:06 11.15723 -61.56849 15889 ft 335 kts 346°
2026-04-25 20:06 11.17974 -61.57425 15558 ft 333 kts 346°
2026-04-25 20:06 11.20224 -61.58000 15228 ft 331 kts 346°
2026-04-25 20:06 11.22451 -61.58569 14901 ft 330 kts 346°
2026-04-25 20:07 11.24671 -61.59137 14557 ft 329 kts 346°
2026-04-25 20:07 11.26860 -61.59697 14239 ft 327 kts 346°
2026-04-25 20:07 11.29068 -61.60262 13895 ft 327 kts 346°
2026-04-25 20:07 11.31272 -61.60826 13555 ft 326 kts 346°
2026-04-25 20:08 11.33471 -61.61389 13206 ft 324 kts 346°
2026-04-25 20:08 11.35651 -61.61947 12867 ft 322 kts 346°
2026-04-25 20:08 11.37821 -61.62502 12540 ft 320 kts 346°
2026-04-25 20:08 11.39980 -61.63055 12218 ft 318 kts 346°
2026-04-25 20:09 11.42124 -61.63604 11893 ft 317 kts 346°
2026-04-25 20:09 11.44254 -61.64150 11571 ft 315 kts 346°
2026-04-25 20:09 11.46375 -61.64693 11261 ft 313 kts 346°
2026-04-25 20:09 11.48483 -61.65233 10946 ft 312 kts 346°
2026-04-25 20:10 11.50578 -61.65774 10632 ft 310 kts 344°
2026-04-25 20:10 11.52510 -61.66717 10281 ft 309 kts 323°
2026-04-25 20:10 11.54201 -61.68056 10090 ft 304 kts 321°
2026-04-25 20:10 11.55838 -61.69386 9914 ft 298 kts 321°
2026-04-25 20:11 11.57434 -61.70685 9610 ft 297 kts 321°
2026-04-25 20:11 11.59068 -61.72008 9298 ft 296 kts 321°
2026-04-25 20:11 11.60659 -61.73290 9014 ft 294 kts 321°
2026-04-25 20:11 11.62259 -61.74574 8731 ft 292 kts 321°
2026-04-25 20:12 11.63855 -61.75852 8448 ft 291 kts 321°
2026-04-25 20:12 11.65441 -61.77120 8159 ft 289 kts 321°
2026-04-25 20:12 11.67024 -61.78384 7880 ft 288 kts 321°
2026-04-25 20:12 11.68088 -61.79234 7697 ft 287 kts 321°
2026-04-25 20:13 11.70163 -61.80890 7334 ft 285 kts 321°
2026-04-25 20:13 11.71718 -61.82131 7058 ft 284 kts 321°
2026-04-25 20:13 11.73269 -61.83370 6786 ft 282 kts 321°
2026-04-25 20:13 11.74822 -61.84608 6512 ft 286 kts 321°
2026-04-25 20:14 11.76404 -61.85872 6210 ft 291 kts 322°
2026-04-25 20:14 11.77999 -61.87145 5899 ft 290 kts 322°
2026-04-25 20:14 11.79586 -61.88412 5604 ft 289 kts 322°
2026-04-25 20:14 11.81165 -61.89673 5317 ft 287 kts 322°
2026-04-25 20:15 11.82713 -61.90910 5043 ft 285 kts 322°
2026-04-25 20:15 11.84275 -61.92158 4749 ft 284 kts 322°
2026-04-25 20:15 11.85825 -61.93396 4466 ft 282 kts 322°
2026-04-25 20:15 11.87362 -61.94624 4225 ft 278 kts 322°
2026-04-25 20:16 11.88878 -61.95835 4001 ft 273 kts 322°
2026-04-25 20:16 11.90437 -61.96863 3866 ft 264 kts 342°
2026-04-25 20:16 11.92202 -61.97141 3771 ft 252 kts
2026-04-25 20:16 11.93926 -61.97141 3661 ft 244 kts
2026-04-25 20:17 11.95591 -61.97114 3583 ft 233 kts
2026-04-25 20:17 11.97175 -61.97095 3435 ft 223 kts
2026-04-25 20:17 11.98684 -61.96974 3203 ft 213 kts 19°
2026-04-25 20:17 11.99838 -61.96154 3007 ft 197 kts 56°
2026-04-25 20:18 12.00272 -61.94938 2810 ft 182 kts 88°
2026-04-25 20:18 12.00391 -61.93688 2647 ft 170 kts 86°
2026-04-25 20:18 12.00458 -61.92556 2502 ft 150 kts 91°
2026-04-25 20:18 12.00462 -61.91531 2299 ft 143 kts 93°
2026-04-25 20:19 12.00458 -61.90529 2109 ft 139 kts 93°
2026-04-25 20:19 12.00453 -61.89529 1936 ft 143 kts 92°
2026-04-25 20:19 12.00449 -61.88512 1747 ft 142 kts 92°
2026-04-25 20:19 12.00446 -61.87513 1551 ft 139 kts 92°
2026-04-25 20:20 12.00441 -61.86520 1364 ft 140 kts 92°
2026-04-25 20:20 12.00438 -61.85525 1167 ft 142 kts 92°
2026-04-25 20:20 12.00434 -61.84524 993 ft 139 kts 91°
2026-04-25 20:20 12.00431 -61.83538 815 ft 139 kts 92°
2026-04-25 20:21 12.00427 -61.82551 618 ft 139 kts 93°
2026-04-25 20:21 12.00429 -61.81570 434 ft 140 kts 91°
2026-04-25 20:21 12.00434 -61.80575 245 ft 140 kts 92°
2026-04-25 20:21 12.00420 -61.79595 23 ft 137 kts 94°
2026-04-25 20:22 12.00410 -61.78908 28 ft 43 kts 89°
2026-04-25 20:22 12.00411 -61.78779 28 ft 24 kts 89°
2026-04-25 20:22 12.00456 -61.78603 27 ft 12 kts
2026-04-25 20:22 12.00482 -61.78602 27 ft 0 kts
2026-04-25 20:23 12.00484 -61.78602 27 ft 1 kts
2026-04-25 20:23 12.00523 -61.78602 32 ft 11 kts
2026-04-25 20:24 12.00586 -61.78562 27 ft 12 kts 74°
2026-04-25 20:24 12.00626 -61.78501 28 ft 10 kts 11°
2026-04-25 20:24 12.00659 -61.78501 29 ft 0 kts